Location: Lansac
(43.2236°N, 0.1635°E)
Time: 01:04:00
(UTC+00:00)

Daily predictions for brighter satellites

Satellite Brightness Start Highest point End
(mag) Time Altitude Azimuth Time Altitude Azimuth Time Altitude Azimuth
Lacrosse 5 3.9 00:01:39 10° WNW 00:03:12 15° W 00:03:12 15° W
Cosmos 1655 Rocket 4.2 00:07:30 51° SW 00:08:52 63° W 00:15:04 10° N
STARLINK-1104 4.2 00:04:52 10° NW 00:08:12 53° NNW 00:08:12 53° NNW
S3M 4.1 00:05:33 10° NNW 00:11:34 59° W 00:12:36 52° SW
Cosmos 1726 3.2 00:08:18 10° NNW 00:10:54 43° NNW 00:10:54 43° NNW
COSMOS 2455 3.2 00:11:40 47° SE 00:12:04 48° ESE 00:17:49 10° NE
Cosmos 2263 4.3 00:12:25 57° WSW 00:13:23 69° WNW 00:19:00 10° NNE
STARLINK-1144 4.3 00:09:51 10° NW 00:12:59 49° NW 00:12:59 49° NW
Cosmos 2228 3.6 00:11:35 10° N 00:15:32 48° ENE 00:15:32 48° ENE
STARLINK-1103 4.5 00:14:49 10° NW 00:17:46 45° NW 00:17:46 45° NW
Meteor 2-15 Rocket 4.4 00:13:23 10° N 00:19:34 77° E 00:20:55 56° SSE
Cosmos 1953 3.2 00:16:26 10° NNW 00:19:26 42° NW 00:19:26 42° NW
Cosmos 1271 Rocket 4.4 00:21:40 25° WNW 00:21:40 25° WNW 00:24:32 10° NNW
Cosmos 1340 Rocket 3.4 00:17:54 10° NNW 00:21:08 54° NNW 00:21:08 54° NNW
Cosmos 1992 Rocket 4.2 00:25:15 56° W 00:25:53 60° WNW 00:31:03 10° NNE
COSMOS 2487 3.8 00:24:52 10° N 00:27:18 37° NNE 00:27:18 37° NNE
Cosmos 1707 4.5 00:29:05 24° WNW 00:29:05 24° WNW 00:31:57 10° NNW
Cosmos 1833 4.0 00:23:30 10° NNW 00:29:09 78° WSW 00:29:45 69° SSW
USA 215 4.1 00:33:07 31° WSW 00:33:07 31° WSW 00:38:04 10° WNW
Cosmos 1626 3.6 00:34:31 31° ENE 00:34:31 31° ENE 00:37:14 10° NNE
Cosmos 1656 Rocket 3.8 00:33:51 54° WSW 00:34:56 66° WNW 00:40:31 10° NNE
In-Cosmos 22 4.3 00:35:37 50° WSW 00:36:17 54° WNW 00:41:29 10° N
FALCON 9 R/B 3.3 00:38:25 43° SSE 00:38:43 44° SSE 00:53:23 10° E
Cosmos 1606 Rocket 3.5 00:34:48 10° N 00:38:48 76° NNW 00:38:48 76° NNW
EO 1 Delta rocket 4.4 00:37:29 10° N 00:43:41 59° WNW 00:44:41 50° WSW
Meteor 1-16 Rocket 4.5 00:39:33 10° NNW 00:44:55 49° W 00:45:20 48° WSW
CZ-4 R/B 3.9 00:40:17 10° N 00:45:03 62° WNW 00:45:23 61° W
Meteor 2-21 4.4 00:45:34 54° SSE 00:47:02 77° E 00:53:13 10° N
Cosmos 2297 Rocket 4.5 00:44:04 10° N 00:48:18 21° NE 00:52:31 10° E
SL-4 R/B 2.3 00:49:12 78° ESE 00:49:12 78° ESE 00:53:51 10° ENE
NOSS 3-2 (C) 4.1 00:44:14 10° NW 00:51:48 59° WSW 00:54:29 42° S
Cosmos 1674 3.7 00:53:21 38° NW 00:53:21 38° NW 00:56:15 10° N
PSLV R/B 3.9 00:49:12 10° N 00:53:42 56° WNW 00:53:53 55° W
ATLAS CENTAUR R/B 1.4 00:56:56 83° NNE 00:56:56 83° NNE 01:00:59 10° NE
SL-19 R/B 4.2 00:53:27 10° NNE 00:58:52 76° ESE 01:00:03 56° S
NOSS 3-4 (A) 3.7 00:57:31 40° WSW 00:59:36 62° NW 01:05:54 10° NNE
NOSS 3-4 (C) 3.7 00:57:37 40° WSW 00:59:42 62° NW 01:06:00 10° NNE
SL-16 R/B 3.4 00:56:01 19° SE 01:00:07 45° ENE 01:05:56 10° N
BREEZE-M R/B 3.7 01:01:08 43° ESE 01:01:08 43° ESE 01:03:41 10° ENE
Cosmos 1777 Rocket 4.1 00:55:16 10° NNW 01:00:30 74° ENE 01:01:53 49° SE
Timation 2 Rocket 4.3 00:54:21 10° NNW 01:00:40 61° ENE 01:04:30 23° SE
Spot 1 4.2 01:00:53 65° SE 01:01:30 78° ENE 01:06:19 10° NNW
ATLAS 3B R/B 2.7 01:00:51 10° NW 01:07:42 84° NE 01:12:43 21° SE
Cosmos 1244 Rocket 4.5 01:07:54 49° SSW 01:09:36 73° W 01:15:49 10° N
CENTAUR R/B 3.4 01:03:41 10° NW 01:11:38 54° WSW 01:14:47 38° S
BREEZE-M DEB (TANK) 3.2 01:12:39 29° NE 01:12:39 29° NE 01:13:55 10° NE
Meteor 2-21 Rocket 4.4 01:11:40 50° SSW 01:13:26 87° W 01:19:39 10° N
Cosmos 1745 Rocket 4.1 01:12:45 40° SSE 01:14:57 65° E 01:21:02 10° NNE
Cosmos 1892 Rocket 3.9 01:14:51 52° W 01:14:58 52° W 01:19:17 10° N
Cosmos 1867 3.5 01:10:45 10° NW 01:16:08 61° WSW 01:16:44 57° SSW
RESURS DK-1 2.2 01:19:17 83° ESE 01:19:18 83° ESE 01:23:27 10° NNE
Meteor 1-24 Rocket 3.6 01:22:03 52° SW 01:23:10 65° WNW 01:28:31 10° N
Cosmos 2227 Rocket 3.8 01:19:08 10° N 01:24:13 32° NE 01:29:16 10° ESE
Cosmos 2369 Rocket 4.4 01:20:55 10° W 01:24:33 17° NW 01:28:11 10° N
Cosmos 1356 Rocket 3.8 01:20:54 10° N 01:25:00 60° ENE 01:25:49 49° SE
ATLAS 2AS CENTAUR R/B 3.7 01:23:17 21° WSW 01:28:29 48° NW 01:36:09 10° NNE
CZ-2D R/B 2.4 01:23:23 10° NNE 01:28:35 58° E 01:30:15 40° SSE
Helios 1B rocket 4.1 01:25:35 10° NNW 01:28:44 21° WNW 01:29:11 21° WNW
ADEOS II 3.8 01:26:51 10° NE 01:31:04 24° E 01:34:07 15° SE
CZ-4C R/B 3.5 01:30:46 60° SSE 01:31:29 80° ENE 01:35:49 10° N
DELTA 2 DEB (DPAF) 4.1 01:34:11 61° SW 01:34:37 65° WSW 01:39:04 10° NNW
STARLINK-1228 3.8 01:31:42 10° NW 01:34:59 52° NNE 01:38:15 10° ESE
STARLINK-1234 3.8 01:33:08 10° NW 01:36:11 48° NNE 01:37:02 36° E
Meteor 2-5 Rocket 4.5 01:35:17 32° WSW 01:36:44 38° WNW 01:41:54 10° N
STARLINK-1212 4.3 01:34:34 10° NW 01:37:30 38° NNE 01:40:26 10° E
STARLINK-1105 4.3 01:35:02 10° NW 01:37:57 38° NNE 01:40:53 10° E
Resurs 1-4 Rocket 2.1 01:33:03 10° NNE 01:38:22 73° ESE 01:40:11 42° S
STARLINK-1209 3.6 01:35:22 10° NW 01:38:29 54° NNE 01:38:42 52° NE
USA 81 4.5 01:36:19 32° SSE 01:38:33 57° E 01:43:43 10° NNE
STARLINK-1247 4.3 01:35:56 10° NW 01:38:54 39° NNE 01:41:51 10° E
STARLINK-52 3.4 01:39:41 59° NNE 01:39:41 59° NNE 01:42:27 10° NE
STARLINK-1227 4.3 01:36:23 10° NW 01:39:20 39° NNE 01:42:17 10° E
STARLINK-1226 4.2 01:37:15 10° NW 01:40:13 39° NNE 01:43:10 10° E
STARLINK-1215 4.2 01:38:10 10° NW 01:41:10 40° NNE 01:44:08 10° E
STARLINK-1217 4.1 01:39:56 10° NW 01:42:56 41° NNE 01:45:55 10° ESE
STARLINK-1229 4.1 01:40:51 10° NW 01:43:52 42° NNE 01:46:51 10° ESE
STARLINK-1270 4.1 01:41:42 10° NW 01:44:44 43° NNE 01:47:43 10° ESE
NPP 3.7 01:40:24 10° NNE 01:45:48 73° ESE 01:47:56 38° S
STARLINK-1189 4.0 01:43:33 10° NW 01:46:34 44° NNE 01:49:35 10° ESE
STARLINK-1188 4.0 01:44:26 10° NW 01:47:27 45° NNE 01:50:28 10° ESE
STARLINK-1235 3.4 01:45:05 10° NW 01:48:08 57° NNE 01:51:12 10° ESE
STARLINK-1187 3.7 01:45:31 10° NW 01:48:33 51° NNE 01:51:35 10° ESE
GEOS 3 Rocket 4.2 01:48:43 36° WSW 01:48:43 36° WSW 01:53:29 10° NW
Meteor 1-21 Rocket 4.5 01:46:48 32° SSE 01:49:23 64° E 01:54:59 10° NNE
STARLINK-1191 3.9 01:46:54 10° NW 01:49:55 47° NNE 01:52:55 10° ESE
Cosmos 1656 4.1 01:48:20 32° SSE 01:50:43 53° ESE 01:56:12 10° NNE
STARLINK-1221 3.8 01:47:46 10° NW 01:50:48 48° NNE 01:53:48 10° ESE
Cosmos 2058 Rocket 4.2 01:47:12 10° NNW 01:51:01 29° W 01:51:01 29° W
STARLINK-1222 3.8 01:48:39 10° NW 01:51:41 48° NNE 01:54:42 10° ESE
STARLINK-1214 3.7 01:49:34 10° NW 01:52:36 49° NNE 01:55:37 10° ESE
CZ-4C R/B 3.4 01:50:43 21° SSE 01:52:42 27° ESE 01:57:18 10° NE
Cosmos 2084 3.4 01:52:18 53° SW 01:53:20 84° NW 01:57:50 10° NE
SL-08 ROCKET BODY 4.4 01:52:04 38° SSW 01:54:18 66° W 02:00:09 10° N
SJ 16-02 2.3 01:51:03 10° N 01:55:20 47° ENE 01:59:16 12° SE
COSMOS 2455 4.0 01:54:47 19° W 01:58:10 33° NW 02:03:36 10° NNE
Cosmos 1300 4.0 01:57:13 10° NNW 02:00:00 25° WNW 02:00:00 25° WNW
Cosmos 921 Rocket 3.8 02:00:21 33° W 02:01:14 37° WNW 02:05:15 10° N
Meteor 2-10 Rocket 3.7 01:57:14 10° N 02:02:35 73° ENE 02:06:01 21° SSE
Cosmos 1709 Rocket 3.9 02:01:48 30° S 02:05:04 86° E 02:11:13 10° N
Cosmos 1626 Rocket 4.1 02:06:42 36° WSW 02:07:35 41° WNW 02:11:42 10° N
Cosmos 1626 4.2 02:09:03 16° WNW 02:09:14 16° WNW 02:11:34 10° NNW
STARLINK-1320 2.7 02:14:52 73° S 02:15:01 77° SE 02:18:09 10° ENE
STARLINK-1322 2.7 02:15:11 73° S 02:15:22 77° SE 02:18:30 10° ENE
STARLINK-1324 2.7 02:15:32 73° S 02:15:43 78° SE 02:18:51 10° ENE
STARLINK-1294 2.7 02:15:47 72° SSW 02:16:00 78° SE 02:19:08 10° ENE
STARLINK-1261 2.7 02:16:10 72° SSW 02:16:23 79° SE 02:19:30 10° ENE
STARLINK-1325 2.7 02:16:30 72° SSW 02:16:44 80° SE 02:19:51 10° ENE
STARLINK-1333 2.7 02:16:48 72° SSW 02:17:02 80° SE 02:20:10 10° NE
Cosmos 2219 3.1 02:11:41 10° NNW 02:17:21 74° WSW 02:22:14 14° SSE
STARLINK-1334 2.7 02:17:07 71° SSW 02:17:22 81° SE 02:20:30 10° NE
STARLINK-1326 2.7 02:17:28 71° SSW 02:17:44 82° SE 02:20:51 10° NE
STARLINK-1323 2.7 02:17:47 71° SSW 02:18:04 82° SE 02:21:11 10° NE
Cosmos 1980 Rocket 3.9 02:13:41 10° SSE 02:18:08 26° ESE 02:22:41 10° NE
STARLINK-1338 3.1 02:17:39 56° SSW 02:18:16 74° SE 02:21:45 10° ENE
STARLINK-1349 2.7 02:18:06 70° SSW 02:18:23 83° SSE 02:21:32 10° NE
STARLINK-1336 2.7 02:18:28 70° SW 02:18:46 83° SSE 02:21:53 10° NE
STARLINK-1331 2.7 02:18:45 69° SW 02:19:04 84° SE 02:22:12 10° NE
STARLINK-1344 2.7 02:19:05 68° SW 02:19:25 85° SE 02:22:32 10° NE
STARLINK-1343 2.7 02:19:25 68° SW 02:19:45 85° SSE 02:22:53 10° NE
STARLINK-1346 2.7 02:19:43 66° SW 02:20:07 86° SE 02:23:16 10° NE
STARLINK-1328 2.7 02:20:05 67° SW 02:20:27 86° SE 02:23:35 10° NE
STARLINK-1354 2.7 02:20:22 66° SW 02:20:45 87° SE 02:23:53 10° NE
STARLINK-1347 2.7 02:20:44 65° SW 02:21:07 88° SE 02:24:14 10° NE
Cosmos 1328 4.0 02:19:18 30° S 02:21:09 67° E 02:25:07 10° NNE
STARLINK-1357 2.7 02:21:02 65° SW 02:21:25 88° SSE 02:24:34 10° NE
STARLINK-1335 2.7 02:21:22 64° SW 02:21:46 89° SSE 02:24:54 10° NE
STARLINK-1327 2.7 02:21:41 63° SW 02:22:06 89° SE 02:25:14 10° NE
STARLINK-1371 3.1 02:21:31 51° SW 02:22:18 80° SE 02:25:48 10° NE
STARLINK-1340 2.7 02:22:01 63° SW 02:22:28 90° NE 02:25:36 10° NE
STARLINK-1356 2.7 02:22:21 62° SW 02:22:48 89° WNW 02:25:55 10° NE
STARLINK-1345 2.7 02:22:41 61° WSW 02:23:09 89° NW 02:26:16 10° NE
UNK 4.4 02:22:20 32° SW 02:23:27 37° W 02:27:43 10° NNW
STARLINK-1355 2.7 02:22:59 61° WSW 02:23:28 88° NNW 02:26:36 10° NE
STARLINK-1321 2.7 02:23:18 60° WSW 02:23:48 88° NW 02:26:55 10° NE
ERS-2 4.0 02:20:44 10° SE 02:23:58 31° ENE 02:27:14 10° N
STARLINK-1358 2.7 02:23:39 59° WSW 02:24:10 87° NNW 02:27:18 10° NE
STARLINK-1341 3.0 02:23:29 49° SW 02:24:20 83° SE 02:27:50 10° NE
STARLINK-1332 2.7 02:23:58 59° WSW 02:24:29 86° NNW 02:27:36 10° NE
STARLINK-1348 2.8 02:24:18 58° WSW 02:24:50 86° NNW 02:27:58 10° NE
STARLINK-1330 2.8 02:24:36 57° WSW 02:25:09 85° NW 02:28:16 10° NE
STARLINK-1363 2.8 02:24:56 57° WSW 02:25:29 85° NW 02:28:37 10° NE
STARLINK-1337 2.8 02:25:15 56° WSW 02:25:49 84° NW 02:28:58 10° NE
STARLINK-1342 2.8 02:25:35 55° WSW 02:26:10 83° NW 02:29:18 10° NE
STARLINK-1374 3.1 02:25:26 46° SW 02:26:23 86° SE 02:29:54 10° NE
STARLINK-1364 2.8 02:25:55 55° WSW 02:26:31 83° NW 02:29:38 10° NE
STARLINK-1376 2.8 02:26:15 54° WSW 02:26:52 82° NW 02:29:59 10° NE
STARLINK-1360 2.8 02:26:30 53° WSW 02:27:07 82° NW 02:30:16 10° NE
STARLINK-1361 2.8 02:26:56 53° WSW 02:27:34 81° NW 02:30:42 10° NE
STARLINK-1367 2.8 02:27:10 51° WSW 02:27:50 81° NW 02:31:00 10° NE
STARLINK-1245 4.4 02:23:54 10° NW 02:27:59 53° NNE 02:32:02 10° ESE
STARLINK-1366 2.8 02:27:33 51° WSW 02:28:13 80° NW 02:31:20 10° NE
STARLINK-1339 3.1 02:27:27 44° SW 02:28:28 90° SSE 02:31:59 10° NE
SL-4 R/B 3.7 02:24:45 10° W 02:29:10 37° NNW 02:33:31 10° NE
IRS-1C 4.4 02:24:13 10° NNE 02:29:33 67° ESE 02:33:25 19° S
AQUA 4.1 02:25:18 10° N 02:29:56 53° WNW 02:32:11 28° SW
Cosmos 1812 Rocket 4.2 02:26:02 10° NNW 02:30:12 39° W 02:31:37 30° SW
STARLINK-1377 3.1 02:29:28 41° WSW 02:30:34 87° NNW 02:34:05 10° NE
STARLINK-1353 3.1 02:31:17 40° WSW 02:32:26 84° NW 02:35:55 10° NE
CZ-4B R/B 3.9 02:27:30 10° N 02:32:28 50° WNW 02:35:13 25° SW
Cosmos 2297 Rocket 2.1 02:27:16 10° NNW 02:32:54 69° WSW 02:38:28 10° SSE
STARLINK-1233 4.3 02:28:52 10° NW 02:32:58 57° NNE 02:37:02 10° ESE
STARLINK-1375 3.1 02:33:04 38° WSW 02:34:17 81° NW 02:37:47 10° NE
ATLAS CENTAUR R/B 3.8 02:33:48 10° WNW 02:36:12 14° NW 02:38:31 10° N
Cosmos 540 Rocket 4.2 02:32:22 16° S 02:36:14 48° ESE 02:41:10 10° NNE
Cosmos 2082 4.1 02:30:57 10° NNW 02:36:36 66° ENE 02:42:11 10° SE
STARLINK-1350 3.1 02:35:22 35° WSW 02:36:41 77° NW 02:40:10 10° NE
FALCON 9 DEB 4.3 02:35:24 20° W 02:37:16 37° NNW 02:40:32 10° NE
STARLINK-1204 4.1 02:33:51 10° NW 02:37:57 62° NNE 02:42:04 10° ESE
Cosmos 990 Rocket 3.9 02:33:31 10° NNW 02:38:47 75° WSW 02:43:59 10° SSE
STARLINK-1352 3.2 02:37:39 33° WSW 02:39:06 74° NW 02:42:38 10° NE
CBERS-1 4.1 02:34:18 10° N 02:39:22 65° WNW 02:42:28 23° SSW
Cosmos 1825 Rocket 3.6 02:38:21 28° SSW 02:40:31 63° W 02:44:50 10° N
Cosmos 2278 4.4 02:36:08 15° S 02:40:34 48° ESE 02:46:00 10° NE
STARLINK-1368 3.3 02:39:45 31° WSW 02:41:17 71° NW 02:44:49 10° NE
Cosmos 1455 2.6 02:39:23 10° NNW 02:42:56 41° W 02:44:15 29° SW
STARLINK-1238 4.0 02:38:47 10° NW 02:42:56 66° NNE 02:47:03 10° ESE
Meteor 1-11 4.4 02:38:11 14° S 02:42:58 70° E 02:48:34 10° NNE
STARLINK-1369 3.3 02:41:37 29° WSW 02:43:12 68° NNW 02:46:42 10° NE
Meteor 1-28 Rocket 4.0 02:40:02 10° SSE 02:43:42 51° ENE 02:47:22 10° N
SL-16 R/B 3.3 02:41:06 22° SW 02:43:51 31° W 02:49:15 10° NW
STARLINK-1372 3.4 02:43:57 27° WSW 02:45:41 65° NNW 02:49:11 10° NE
USA 234 4.3 02:39:59 10° ENE 02:45:54 35° SE 02:51:07 13° S
Cosmos 2074 Rocket 4.2 02:40:25 11° S 02:46:23 72° E 02:52:40 10° NNE
ATLAS CENTAUR R/B 2.3 02:43:08 10° NW 02:46:26 67° SW 02:54:25 10° SE
STARLINK-1378 3.4 02:46:05 26° WSW 02:47:54 63° NNW 02:51:25 10° NE
STARLINK-1201 3.9 02:43:47 10° NW 02:47:56 72° NNE 02:52:04 10° ESE
STARLINK-1329 3.5 02:46:35 25° WSW 02:48:25 62° NNW 02:51:57 10° NE
Cosmos 841 Rocket 3.7 02:44:27 17° S 02:48:28 68° ESE 02:53:41 10° NNE
STARLINK-1365 3.5 02:47:17 24° WSW 02:49:10 59° NNW 02:52:39 10° NE
STARLINK-1379 3.5 02:48:13 24° WSW 02:50:07 60° NNW 02:53:38 10° NE
STARLINK-1362 3.5 02:48:47 24° WSW 02:50:43 60° NNW 02:54:14 10° NE
GP-B 3.7 02:47:06 10° NNW 02:51:15 40° W 02:53:37 22° SW
IRS-1D 4.0 02:47:05 10° N 02:52:15 51° WNW 02:55:45 20° SW
STARLINK-1206 3.7 02:48:45 10° NW 02:52:55 78° NE 02:57:03 10° ESE
STARLINK-1373 3.6 02:50:59 22° WSW 02:53:01 57° NNW 02:56:32 10° NE
COBE Rocket 4.1 02:48:47 10° SSE 02:53:40 76° ENE 02:58:43 10° N
Cosmos-2242 3.3 02:50:25 10° NNW 02:54:32 48° W 02:57:21 19° SSW
NOSS 7 (E) 4.3 02:53:04 25° SW 02:55:02 82° NW 02:58:12 10° NE
STARLINK-1390 3.6 02:52:58 21° WSW 02:55:05 55° NNW 02:58:35 10° NE
Cosmos 1400 Rocket 3.1 02:51:36 10° N 02:55:43 73° E 02:59:50 10° SSE
Cosmos 2221 4.1 02:52:29 10° N 02:56:29 35° ENE 03:00:28 10° SE
ATLAS 3B R/B 3.9 02:52:56 10° WNW 02:57:38 20° WSW 02:59:50 17° SW
STARLINK-1205 3.6 02:53:44 10° NW 02:57:53 84° NNE 03:02:02 10° SE
Cosmos 2184 Rocket 4.0 02:51:53 11° S 02:57:55 85° E 03:04:07 10° N
SL-08 R/B 3.2 02:54:30 10° S 02:59:12 68° WSW 03:03:51 10° NNW
CZ-4C R/B 4.1 02:56:14 10° SSE 02:59:40 47° ENE 03:03:10 10° N
STARLINK-1218 3.6 02:58:42 10° NW 03:02:51 90° SSW 03:07:00 10° SE
Cosmos 1703 4.2 03:02:09 20° SW 03:04:13 33° WNW 03:07:50 10° N
Cosmos 1763 Rocket 4.0 03:03:46 18° SW 03:07:20 45° WNW 03:12:13 10° N
STARLINK-1254 3.5 03:03:41 10° NW 03:07:50 83° SW 03:11:59 10° SE
IRS-P3 4.4 03:02:41 10° N 03:07:51 52° WNW 03:12:05 15° SW
CZ-2D R/B 3.7 03:04:26 10° NNW 03:08:10 20° WNW 03:11:34 11° WSW
Cosmos 2227 Rocket 2.6 03:03:05 10° NW 03:08:22 41° WSW 03:13:37 10° S
Cosmos 2181 Rocket 4.4 03:03:09 10° NNW 03:09:12 46° W 03:15:15 10° SSW
Cosmos 1697 Rocket 2.8 03:04:56 17° SW 03:09:23 67° WNW 03:15:03 10° NNE
ADEOS II 2.6 03:05:58 10° N 03:10:57 45° WNW 03:15:03 15° SW
STARLINK-1228 4.4 03:08:51 10° W 03:11:22 20° SW 03:13:51 10° S
STARLINK-1231 3.5 03:08:41 10° WNW 03:12:50 77° SW 03:16:58 10° SE
STARLINK-1212 3.9 03:10:35 10° WNW 03:13:13 25° SW 03:15:49 10° SSE
STARLINK-1105 3.9 03:11:03 10° WNW 03:13:40 25° SW 03:16:15 10° SSE
STARLINK-1247 3.9 03:11:58 10° WNW 03:14:35 24° SW 03:17:11 10° S
STARLINK-1227 3.9 03:12:27 10° WNW 03:15:01 24° SW 03:17:35 10° S
SL-16 R/B 4.3 03:11:18 10° SSE 03:15:35 23° E 03:19:52 10° NE
Cosmos 1315 Rocket 4.1 03:11:59 10° N 03:15:43 41° ENE 03:19:26 10° SSE
STARLINK-1226 4.0 03:13:19 10° WNW 03:15:54 24° SW 03:18:27 10° S
STARLINK-1215 4.0 03:14:17 10° W 03:16:50 23° SW 03:19:23 10° S
Resurs 1-4 Rocket 4.0 03:14:20 10° NNW 03:17:34 17° WNW 03:20:49 10° W
CZ-2C R/B 3.1 03:14:04 10° NNE 03:17:45 62° E 03:21:26 10° S
STARLINK-1232 3.5 03:13:41 10° WNW 03:17:48 70° SW 03:21:55 10° SE
STARLINK-1217 4.0 03:16:04 10° W 03:18:35 22° SW 03:21:05 10° S
STARLINK-1229 4.1 03:17:00 10° W 03:19:30 22° SW 03:22:00 10° S
H-2A R/B 2.0 03:15:46 10° S 03:20:03 77° WSW 03:24:28 10° NNW
STARLINK-1270 4.1 03:17:53 10° W 03:20:22 22° SW 03:22:50 10° S
STARLINK-1189 4.1 03:19:46 10° W 03:22:12 21° SW 03:24:37 10° S
ARIANE 5 R/B 2.7 03:17:36 10° N 03:22:33 55° WNW 03:27:15 11° SSW
STARLINK-1208 3.6 03:18:39 10° WNW 03:22:45 64° SW 03:26:51 10° SE
BREEZE-M R/B 3.9 03:19:39 10° W 03:22:52 28° NNW 03:25:10 10° NE
STARLINK-1188 4.2 03:20:40 10° W 03:23:05 20° SW 03:25:29 10° S
STARLINK-1187 4.4 03:21:57 10° W 03:24:07 17° SW 03:26:16 10° S
STARLINK-1191 4.2 03:23:13 10° W 03:25:30 19° SW 03:27:48 10° S
STARLINK-1221 4.3 03:24:05 10° W 03:26:22 19° SW 03:28:39 10° S
STARLINK-1222 4.3 03:25:01 10° W 03:27:15 18° SW 03:29:30 10° S
STARLINK-1271 3.6 03:23:39 10° WNW 03:27:44 58° SW 03:31:48 10° SE
BREEZE-M DEB (TANK) 1.1 03:26:03 10° WNW 03:28:09 53° SSW 03:30:37 10° SE
STARLINK-1214 4.3 03:25:57 10° W 03:28:10 18° SW 03:30:22 10° S
Spot 4 Rocket 4.1 03:23:22 10° N 03:28:28 67° WNW 03:33:33 10° SSW
SL-24 DEB 4.4 03:24:14 10° N 03:28:53 76° E 03:33:29 10° S
Cosmos 2154 Rocket 4.0 03:23:35 10° S 03:29:53 86° W 03:36:12 10° N
Lacrosse 4 Rocket 1.4 03:25:39 10° NNW 03:29:59 76° WSW 03:34:10 10° SSE
Meteor 1-27 4.2 03:25:40 10° NNW 03:31:10 65° W 03:36:39 10° S
Cosmos 2058 3.7 03:27:11 10° S 03:31:15 54° E 03:35:21 10° NNE
USA 129 0.7 03:30:19 10° NNE 03:32:14 84° WNW 03:33:05 19° SSW
STARLINK-1154 3.7 03:28:40 10° WNW 03:32:42 53° SW 03:36:44 10° SE
SJ 16-02 3.0 03:30:42 10° WNW 03:33:30 17° W 03:36:12 10° SW
Cosmos 2298 Rocket 4.1 03:28:47 10° NNW 03:34:07 86° ENE 03:39:26 10° SSE
IDEFIX/ARIANE 42P 2.6 03:31:12 10° NNE 03:36:30 81° WNW 03:41:45 10° SSW
STARLINK-1197 3.8 03:33:40 10° WNW 03:37:40 48° SW 03:41:39 10° SSE
STARLINK 1040 3.6 03:35:58 10° SSW 03:38:16 33° SE 03:40:40 10° ENE
CZ-4C R/B 2.7 03:35:56 10° WSW 03:40:47 46° NW 03:46:34 10° NNE
Cosmos 1937 Rocket 4.4 03:37:16 10° NW 03:41:47 30° W 03:46:17 10° SSW
STARLINK-1198 3.9 03:38:38 10° WNW 03:42:36 44° SW 03:46:32 10° SSE
Cosmos 2369 4.5 03:37:57 10° SW 03:43:12 39° WNW 03:48:29 10° NNE
Cosmos 1842 Rocket 3.8 03:40:07 10° NNW 03:44:31 55° W 03:48:52 10° S
Cosmos 1408 4.0 03:42:52 10° SSE 03:46:21 40° E 03:49:51 10° NNE
Iridium 2 4.4 03:43:44 10° NNW 03:47:10 34° W 03:50:34 10° SSW
STARLINK-1199 4.0 03:43:41 10° WNW 03:47:35 40° SW 03:51:28 10° SSE
Meteor 2-2 Rocket 4.4 03:42:55 10° NNW 03:48:58 77° W 03:54:58 10° S
Uosat 12 SS-18 rocket 4.0 03:45:00 10° NW 03:49:17 69° WSW 03:53:52 10° SSE
STARLINK-1269 4.5 03:45:50 10° NW 03:49:55 56° NNE 03:54:00 10° ESE
STARLINK-1210 4.2 03:48:42 10° WNW 03:52:31 37° SW 03:56:20 10° SSE
CZ-4B R/B 1.8 03:50:40 10° SSE 03:53:39 60° ENE 03:56:41 10° N
STARLINK-1200 4.3 03:50:50 10° NW 03:54:56 60° NNE 03:59:02 10° ESE
